Погода в Визимьярах

Россия / Республика Марий Эл     56°26′06″N   46°56′25″E
темп.,
°C
ветер,
м/с
пор.,
м/с
влажн.,
%
обл.,
%
осадки,
мм/ч
давл.,
гПа
погр.,
м
28 сентября, вт
вт2800:00+3св4108811 0.0 1024472
03:00+1св39935 0.0 1026331
06:00+1св310930 0.0 1028269
09:00+5св48735 0.0 1028524
12:00+9св465067 0.0 10291188
15:00+9св46465 0.0 10291297
18:00+4ссв25698 0.0 103091
21:00+3ссв267699 0.0 1031131
29 сентября, ср
ср2900:00+2ссв238278 0.0 103247
03:00+1с248587 0.0 103271
06:000с23897 0.0 103247
09:00+5ссв2466100 0.0 1032341
12:00+9с345198 0.0 1032962
15:00+10с345180 0.0 10311287
18:00+5с237662 0.0 103148
21:00+4ссз248574 0.0 103194
30 сентября, чт
чт3000:00+5ссз249064 0.0 1031115
03:00+4сз2395100 0.0 103199
06:00+5сз2492100 0.0 1031125
09:00+8сз247759 0.0 1031371
12:00+10ссз2470100 0.0 1031655
15:00+8зсз2686100 0.1 1031323
18:00+7зсз278985 0.0 1030264
21:00+8з3787100 0.0 1030204
1 октября, пт
пт100:00+7зсз25965 0.0 1030107
03:00+5сз24975 0.0 103084
06:00+5сз25976 0.0 1030113
09:00+10ссз357651 0.0 1031378
12:00+14ссз345850 0.0 1030880
15:00+14ссз355372 0.0 10301043
18:00+9сз22775 0.0 103122
21:00+8ссз22865 0.0 103216
2 октября, сб
сб200:00+7сз11915 0.0 103210
03:00+6сз119416 0.0 103210
06:00+8сз1189100 0.0 103226
09:00+10зсз1284100 0.0 1033103
12:00+11зсз1279100 0.0 1033290
15:00+12з1276100 0.0 1032364
18:00+11з118399 0.1 103212
21:00+11з1181100 0.1 103316